Date String (YYYY-MM-DD hh:mm:ss) UTC,Instrument flags,absolute air pressure of the measurement (hPa),sample flow rate (lpm),inlet stack bypass flow (lpm),air temperature of the measurement (°C),ambient temperature measured by the external sensor (°C),aerosol sample conditioner tube jacket temperature (°C),OPC LED temperature (°C),internal box temperature (°C),relative humidity of the measurement (%),span deviation,mass concentration of particles derived from Lorenz-Mie calculation of OPC scattering (μg/m³),mass concentration of particles derived from Lorenz-Mie calculation of OPC scattering (μg/m³),mass concentration of particles derived from Lorenz-Mie calculation of OPC scattering (μg/m³)
DateTimeUTC,F1_M11,P_M11,Q1_M11,Q2_M11,T1_M11,T2_M11,T3_M11,T4_M11,T5_M11,U1_M11,ZSPAN_M11,X0_M11,X2_M11,X1_M11
2024-04-01 07:00:00,SystemResetWarning,0818.2,4.99,000.00,021.9,021.1,000.0,030.5,023.8,26.3,0000.0,0002.15,0001.26,0000.91
2024-04-01 07:01:00,SystemResetWarning,0818.1,4.99,000.00,021.9,021.1,000.0,030.5,023.8,26.3,0000.0,0002.29,0001.34,0000.93
2024-04-01 07:02:00,SystemResetWarning,0818.1,5.00,000.00,021.9,021.0,000.0,030.5,023.7,26.3,0000.0,0002.32,0001.38,0000.94
2024-04-01 07:03:00,SystemResetWarning,0818.1,5.01,000.00,021.9,021.0,000.0,030.5,023.7,26.4,0000.0,0002.28,0001.39,0000.96
2024-04-01 07:04:00,SystemResetWarning,0818.1,5.01,000.00,021.9,021.0,000.0,030.5,023.7,26.6,0000.0,0002.33,0001.44,0001.00
2024-04-01 07:05:00,SystemResetWarning,0818.2,5.00,000.00,021.9,021.0,000.0,030.5,023.7,26.6,0000.0,0002.29,0001.48,0001.05
2024-04-01 07:06:00,SystemResetWarning,0818.3,4.99,000.00,021.9,020.9,000.0,030.5,023.7,26.6,0000.0,0002.32,0001.52,0001.09
2024-04-01 07:07:00,SystemResetWarning,0818.3,4.99,000.00,021.9,020.9,000.0,030.5,023.7,26.5,0000.0,0002.32,0001.53,0001.12
2024-04-01 07:08:00,SystemResetWarning,0818.3,5.01,000.00,021.9,020.9,000.0,030.5,023.7,26.6,0000.0,0002.22,0001.54,0001.15
2024-04-01 07:09:00,SystemResetWarning,0818.3,5.01,000.00,021.9,020.9,000.0,030.5,023.7,26.6,0000.0,0002.29,0001.58,0001.17
2024-04-01 07:10:00,SystemResetWarning,0818.4,4.99,000.00,021.8,020.9,000.0,030.5,023.7,26.6,0000.0,0002.32,0001.58,0001.18
2024-04-01 07:11:00,SystemResetWarning,0818.4,4.99,000.00,021.8,021.0,000.0,030.5,023.7,26.5,0000.0,0002.37,0001.58,0001.19
2024-04-01 07:12:00,SystemResetWarning,0818.4,4.99,000.00,021.8,021.0,000.0,030.5,023.7,26.6,0000.0,0002.54,0001.52,0001.19
2024-04-01 07:13:00,SystemResetWarning,0818.4,5.00,000.00,021.8,021.0,000.0,030.5,023.7,26.6,0000.0,0003.41,0001.46,0001.19
2024-04-01 07:14:00,SystemResetWarning,0818.4,5.01,000.00,021.8,021.0,000.0,030.5,023.7,26.6,0000.0,0003.53,0001.48,0001.18
2024-04-01 07:15:00,SystemResetWarning,0818.4,5.00,000.00,021.8,021.0,000.0,030.5,023.7,26.7,0000.0,0003.52,0001.44,0001.15
2024-04-01 07:16:00,SystemResetWarning,0818.5,4.98,000.00,021.8,021.1,000.0,030.5,023.7,26.8,0000.0,0003.50,0001.41,0001.12
2024-04-01 07:17:00,SystemResetWarning,0818.5,5.00,000.00,021.8,021.1,000.0,030.5,023.7,26.8,0000.0,0003.48,0001.38,0001.09
2024-04-01 07:18:00,SystemResetWarning,0818.5,5.02,000.00,021.8,021.1,000.0,030.4,023.7,26.8,0000.0,0003.49,0001.39,0001.09
2024-04-01 07:19:00,SystemResetWarning,0818.5,4.99,000.00,021.8,021.1,000.0,030.4,023.7,26.8,0000.0,0003.44,0001.37,0001.08
2024-04-01 07:20:00,SystemResetWarning,0818.6,4.99,000.00,021.8,021.1,000.0,030.4,023.7,26.9,0000.0,0003.35,0001.33,0001.08
2024-04-01 07:21:00,SystemResetWarning,0818.6,4.99,000.00,021.8,021.1,000.0,030.4,023.7,27.0,0000.0,0003.39,0001.36,0001.09
2024-04-01 07:22:00,SystemResetWarning,0818.6,5.01,000.00,021.8,021.1,000.0,030.4,023.7,27.6,0000.0,0003.28,0001.36,0001.11
2024-04-01 07:23:00,SystemResetWarning,0818.6,5.01,000.00,021.8,021.0,000.0,030.4,023.7,27.7,0000.0,0003.31,0001.40,0001.14
2024-04-01 07:24:00,SystemResetWarning,0818.6,4.99,000.00,021.8,021.0,000.0,030.4,023.7,27.7,0000.0,0002.60,0001.52,0001.22
2024-04-01 07:25:00,SystemResetWarning,0818.6,4.99,000.00,021.8,021.0,000.0,030.4,023.7,27.8,0000.0,0002.34,0001.63,0001.32
2024-04-01 07:26:00,SystemResetWarning,0818.7,5.01,000.00,021.8,021.0,000.0,030.4,023.7,27.8,0000.0,0002.30,0001.69,0001.41
2024-04-01 07:27:00,SystemResetWarning,0818.8,5.01,000.00,021.8,021.0,000.0,030.4,023.6,27.8,0000.0,0002.82,0001.86,0001.53
2024-04-01 07:28:00,SystemResetWarning,0818.8,4.99,000.00,021.8,020.9,000.0,030.4,023.6,28.0,0000.0,0003.25,0002.08,0001.72
2024-04-01 07:29:00,SystemResetWarning,0818.8,4.99,000.00,021.8,020.9,000.0,030.4,023.6,28.0,0000.0,0003.62,0002.32,0001.92
2024-04-01 07:30:00,SystemResetWarning,0818.8,4.99,000.00,021.8,020.9,000.0,030.4,023.6,28.1,0000.0,0003.95,0002.54,0002.10
2024-04-01 07:31:00,SystemResetWarning,0818.7,5.00,000.00,021.8,020.9,000.0,030.4,023.6,28.2,0000.0,0004.22,0002.73,0002.26
2024-04-01 07:32:00,SystemResetWarning,0818.7,5.01,000.00,021.8,020.9,000.0,030.4,023.6,28.2,0000.0,0004.43,0002.90,0002.40
2024-04-01 07:33:00,SystemResetWarning,0818.7,5.01,000.00,021.8,020.9,000.0,030.4,023.6,28.2,0000.0,0004.62,0003.05,0002.51
2024-04-01 07:34:00,SystemResetWarning,0818.7,4.99,000.00,021.8,020.9,000.0,030.4,023.6,28.1,0000.0,0004.70,0003.11,0002.58
2024-04-01 07:35:00,SystemResetWarning,0818.6,5.00,000.00,021.7,020.9,000.0,030.4,023.6,28.1,0000.0,0004.68,0003.11,0002.59
2024-04-01 07:36:00,SystemResetWarning,0818.6,4.99,000.00,021.7,020.9,000.0,030.4,023.6,28.1,0000.0,0004.78,0003.12,0002.59
2024-04-01 07:37:00,SystemResetWarning,0818.5,5.01,000.00,021.7,020.9,000.0,030.4,023.6,28.3,0000.0,0004.96,0003.18,0002.67
2024-04-01 07:38:00,SystemResetWarning,0818.5,5.01,000.00,021.7,020.9,000.0,030.4,023.6,28.4,0000.0,0004.78,0003.23,0002.77
2024-04-01 07:39:00,SystemResetWarning,0818.4,5.01,000.00,021.7,020.9,000.0,030.4,023.6,28.5,0000.0,0004.56,0003.24,0002.81
2024-04-01 07:40:00,SystemResetWarning,0818.4,5.01,000.00,021.7,020.9,000.0,030.4,023.6,28.6,0000.0,0004.54,0003.25,0002.86
2024-04-01 07:41:00,SystemResetWarning,0818.4,5.00,000.00,021.7,020.8,000.0,030.4,023.5,28.6,0000.0,0004.67,0003.30,0002.93
2024-04-01 07:42:00,SystemResetWarning,0818.4,4.99,000.00,021.7,020.8,000.0,030.4,023.5,28.7,0000.0,0005.37,0003.37,0003.03
2024-04-01 07:43:00,SystemResetWarning,0818.3,4.99,000.00,021.7,020.8,000.0,030.3,023.5,28.8,0000.0,0005.53,0003.44,0003.13
2024-04-01 07:44:00,SystemResetWarning,0818.3,4.99,000.00,021.7,020.8,000.0,030.3,023.5,28.8,0000.0,0005.65,0003.51,0003.22
2024-04-01 07:45:00,SystemResetWarning,0818.3,5.00,000.00,021.7,020.8,000.0,030.3,023.5,28.9,0000.0,0006.42,0003.65,0003.34
2024-04-01 07:46:00,SystemResetWarning,0818.3,5.01,000.00,021.7,020.8,000.0,030.3,023.5,28.9,0000.0,0006.96,0003.82,0003.48
2024-04-01 07:47:00,SystemResetWarning,0818.4,5.01,000.00,021.7,020.8,000.0,030.3,023.5,28.9,0000.0,0007.27,0004.00,0003.65
2024-04-01 07:48:00,SystemResetWarning,0818.4,4.99,000.00,021.7,020.8,000.0,030.3,023.5,29.0,0000.0,0007.42,0004.10,0003.75
2024-04-01 07:49:00,SystemResetWarning,0818.5,5.00,000.00,021.7,020.8,000.0,030.3,023.5,29.3,0000.0,0007.47,0004.15,0003.81
2024-04-01 07:50:00,SystemResetWarning,0818.6,4.99,000.00,021.7,020.8,000.0,030.3,023.5,29.3,0000.0,0007.71,0004.25,0003.89
2024-04-01 07:51:00,SystemResetWarning,0818.6,5.01,000.00,021.7,020.8,000.0,030.3,023.5,29.3,0000.0,0008.02,0004.36,0003.96
2024-04-01 07:52:00,SystemResetWarning,0818.6,5.01,000.00,021.7,020.8,000.0,030.3,023.5,29.3,0000.0,0008.06,0004.44,0004.07
2024-04-01 07:53:00,SystemResetWarning,0818.7,5.02,000.00,021.6,020.8,000.0,030.3,023.5,29.3,0000.0,0007.80,0004.50,0004.14
2024-04-01 07:54:00,SystemResetWarning,0818.7,4.99,000.00,021.6,020.7,000.0,030.3,023.5,29.2,0000.0,0007.81,0004.55,0004.20
2024-04-01 07:55:00,SystemResetWarning,0818.7,5.00,000.00,021.6,020.7,000.0,030.3,023.5,29.2,0000.0,0007.86,0004.60,0004.26
2024-04-01 07:56:00,SystemResetWarning,0818.7,4.99,000.00,021.6,020.7,000.0,030.3,023.4,29.3,0000.0,0007.69,0004.62,0004.28
2024-04-01 07:57:00,SystemResetWarning,0818.7,5.00,000.00,021.6,020.7,000.0,030.3,023.4,29.3,0000.0,0007.50,0004.59,0004.28
2024-04-01 07:58:00,SystemResetWarning,0818.7,5.01,000.00,021.6,020.7,000.0,030.3,023.4,29.4,0000.0,0007.46,0004.55,0004.26
2024-04-01 07:59:00,SystemResetWarning,0818.7,5.01,000.00,021.6,020.6,000.0,030.3,023.4,29.4,0000.0,0007.40,0004.55,0004.28
